[[{"header":{"parameterUnit":"m.s-1","parameterCategory":1,"la1":30.2991,"la2":30.254,"lo1":-89.0895,"lo2":-89.0444,"dy":0.0017,"dx":0.0017,"nx":28,"ny":28,"refTime":"2025-03-26T03:00:00:Z","depth":0,"parameterNumber":2,"parameterNumberName":"U-component_of_WINDS"},"data":[0,0,0,0,0,0,0,0,0,0,0,0,0,0,0,0,0,0,0,0,0,0,0,0,0,0,0,0,0,0,0,0,0,0,0,0,0,0,0,0,0,0,0,0,0,0,0,0,0,0,0,0,0,0,0,0,0,0,1.5908,1.5909,0,1.6013,1.6014,1.6015,1.6003,1.6001,1.6,1.5998,1.6111,1.6115,1.612,0,0,0,0,0,0,0,0,0,0,0,0,0,1.57,1.5704,1.5908,1.5909,1.591,1.6013,1.6014,1.6016,1.6003,1.6001,1.5999,1.5997,1.6109,1.6115,1.612,0,0,0,0,0,0,0,0,0,0,0,0,0,1.5796,1.5705,1.5907,1.5916,1.5918,1.6012,1.6014,1.6016,1.6004,1.6001,1.5999,1.5996,1.6107,1.6114,1.6121,1.6214,0,0,1.6142,1.6145,0,0,0,0,0,0,0,0,1.5791,1.5804,1.5914,1.5916,1.5918,1.5992,1.5982,1.6083,1.6004,1.5971,1.5998,1.5995,1.6074,1.6083,1.6109,1.622,1.6224,1.6142,1.6147,1.615,1.6151,0,0,0,0,0,0,0,1.5784,1.5799,1.5949,1.5915,1.5918,1.5916,1.5927,1.6001,1.6036,1.5974,1.5973,1.5986,1.6074,1.6102,1.6111,1.6226,1.6142,1.6148,1.6153,1.6155,1.6418,1.6421,0,0,0,0,0,0,1.5775,1.5794,1.5946,1.5953,1.5847,1.5922,1.5934,1.5971,1.6035,1.6042,1.5988,1.5985,1.6091,1.6103,1.6115,1.6228,1.6149,1.6156,1.616,1.6416,1.6419,1.6422,0,0,0,0,0,0,1.577,1.5788,1.5942,1.5873,1.5892,1.5928,1.597,1.5974,1.6002,1.6045,1.6052,1.6009,1.609,1.6105,1.6189,1.6232,1.6159,1.6165,1.6412,1.6417,1.6421,1.6455,0,0,0,0,0,0,1.5764,1.5787,1.5822,1.5874,1.5896,1.6013,1.5972,1.5978,1.6013,1.601,1.6067,1.6074,1.6089,1.6179,1.6196,1.624,1.6171,1.6409,1.6414,1.6419,1.645,1.646,1.6468,0,0,0,0,0,1.5757,1.5829,1.5824,1.5842,1.594,1.6016,1.6028,1.6043,1.6017,1.6053,1.608,1.6072,1.6224,1.6188,1.6207,1.6253,1.6406,1.6413,1.6419,1.6446,1.6458,1.6468,0,0,0,0,0,0,1.5783,1.5836,1.5831,1.5921,1.5964,1.6013,1.6059,1.6055,1.6107,1.6102,1.6119,1.6132,1.6217,1.6244,1.6202,1.6347,1.6312,1.6322,1.6326,1.6338,1.6347,1.6338,1.6176,0,0,0,0,0,1.5798,1.5854,1.5898,1.5973,1.5995,1.6023,1.6057,1.6064,1.6109,1.6128,1.6161,1.6207,1.6265,1.6303,1.6359,1.6454,1.6466,1.6496,1.6505,1.6512,1.6521,1.6573,1.6586,1.6443,1.6443,1.6443,0,0,1.5833,1.5868,1.5902,1.5979,1.6013,1.6071,1.6039,1.6101,1.6145,1.6138,1.6218,1.6245,1.6297,1.6386,1.6428,1.6411,1.6563,1.652,1.6525,1.6531,1.6581,1.6594,1.6606,1.6448,1.6447,1.6446,0,0,1.5924,1.5956,1.6022,1.6056,1.6107,1.6126,1.6141,1.6192,1.6208,1.6289,1.6284,1.6337,1.6437,1.6473,1.6505,1.6609,1.6604,1.6627,1.6674,1.6725,1.6736,1.6746,1.6783,1.6796,1.6636,1.6636,1.6636,0,1.596,1.6045,1.6057,1.612,1.6154,1.6148,1.6216,1.6249,1.6316,1.634,1.6321,1.6444,1.6479,1.6577,1.6602,1.6628,1.6647,1.6621,1.6733,1.6743,1.6753,1.6788,1.6802,1.6639,1.6638,1.6638,1.6638,0,1.6087,1.6146,1.6194,1.6257,1.6296,1.6361,1.6384,1.6422,1.6426,1.6447,1.6529,1.657,1.6634,1.6658,1.6663,1.6756,1.6744,1.6729,1.6694,1.6769,1.6802,1.6816,1.6642,1.6641,1.6641,1.664,0,0,1.6198,1.6265,1.6282,1.631,1.6366,1.6413,1.6477,1.6538,1.657,1.6617,1.6672,1.6756,1.6741,1.6777,1.6786,1.6831,1.691,1.681,1.6811,1.6826,1.7015,1.7026,1.7041,1.6906,1.6909,1.6911,1.701,0,1.6294,1.6406,1.6419,1.652,1.6575,1.657,1.6627,1.6667,1.6688,1.6739,1.6763,1.6821,1.6798,1.682,1.6863,1.6891,1.6948,1.6884,1.6958,1.6961,1.6945,1.7059,1.7071,1.7162,1.7023,1.7026,1.7027,0,1.6421,1.6469,1.6575,1.6621,1.6645,1.6695,1.6751,1.68,1.6846,1.6858,1.6897,1.6901,1.6968,1.6931,1.7024,1.6981,1.7012,1.703,1.7034,1.7041,1.6998,1.7069,1.7192,1.7205,1.7048,1.7046,1.7045,0,1.649,1.6581,1.6656,1.6681,1.6737,1.6773,1.6798,1.6842,1.6877,1.6926,1.6949,1.7007,1.7038,1.7083,1.7102,1.7072,1.7194,1.7158,1.7207,1.7206,1.7233,1.7231,1.7362,1.7254,1.7253,1.7253,1.7253,0,1.6596,1.6661,1.6688,1.6734,1.6807,1.6821,1.6893,1.6917,1.6956,1.7007,1.7007,1.7056,1.7078,1.713,1.7145,1.722,1.7235,1.7247,1.725,1.7247,1.7245,1.7268,1.7262,1.7257,1.7256,1.7255,1.7255,0,1.6685,1.6706,1.6787,1.6834,1.6847,1.6898,1.6939,1.6984,1.7004,1.7069,1.7085,1.7117,1.7178,1.7201,1.7277,1.7287,1.7374,1.7372,1.7357,1.7358,1.7405,1.74,1.7555,1.7576,1.7454,1.7455,1.7456,0,1.6751,1.68,1.6852,1.6885,1.6911,1.6966,1.7001,1.7017,1.7054,1.711,1.7148,1.7209,1.7258,1.7357,1.7387,1.7445,1.7444,1.7495,1.7453,1.7448,1.7445,1.7441,1.7446,1.7503,1.7504,1.7505,1.7506,0,1.6865,1.6873,1.6923,1.6977,1.7018,1.7062,1.7104,1.7132,1.7155,1.7196,1.7258,1.7296,1.7372,1.7432,1.7491,1.7519,1.7516,1.7518,1.7533,1.7529,1.7518,1.7524,1.7378,1.7515,1.7514,1.7513,1.7513,1.7512,1.6944,1.6988,1.703,1.7086,1.7119,1.7158,1.7203,1.7227,1.7279,1.734,1.7347,1.7413,1.7458,1.7537,1.7567,1.7619,1.7606,1.7627,1.7632,1.7637,1.764,1.751,1.7631,1.763,1.763,1.763,1.763,0,1.7058,1.7085,1.7136,1.7194,1.7238,1.723,1.7277,1.7314,1.7372,1.7413,1.7461,1.7532,1.759,1.7625,1.7683,1.7719,1.7719,1.7734,1.7731,1.7738,1.7649,1.763,1.7732,1.7732,1.7732,1.7732,1.7732,1.7732,1.7122,1.7195,1.7208,1.7297,1.7324,1.7387,1.7414,1.7451,1.7483,1.7562,1.7609,1.7631,1.767,1.7731,1.7785,1.7793,1.7815,1.7831,1.7838,1.7755,1.7744,1.7734,1.7716,1.7835,1.7835,1.7923,1.7923,1.7924]},{"header":{"parameterUnit":"m.s-1","parameterCategory":1,"la1":30.2991,"la2":30.254,"lo1":-89.0895,"lo2":-89.0444,"dy":0.0017,"dx":0.0017,"nx":28,"ny":28,"refTime":"2025-03-26T03:00:00:Z","depth":0,"parameterNumber":3,"parameterNumberName":"V-component_of_WINDS"},"data":[0,0,0,0,0,0,0,0,0,0,0,0,0,0,0,0,0,0,0,0,0,0,0,0,0,0,0,0,0,0,0,0,0,0,0,0,0,0,0,0,0,0,0,0,0,0,0,0,0,0,0,0,0,0,0,0,0,0,2.7155,2.7156,0,2.7199,2.7199,2.72,2.7174,2.7173,2.7172,2.717,2.7211,2.7213,2.7215,0,0,0,0,0,0,0,0,0,0,0,0,0,2.7044,2.7046,2.7155,2.7156,2.7156,2.7199,2.7199,2.72,2.7174,2.7173,2.7171,2.717,2.721,2.7213,2.7215,0,0,0,0,0,0,0,0,0,0,0,0,0,2.709,2.7047,2.7155,2.7149,2.7148,2.7199,2.72,2.72,2.7175,2.7173,2.7171,2.7169,2.7209,2.7212,2.7216,2.7273,0,0,2.7226,2.7227,0,0,0,0,0,0,0,0,2.7088,2.7094,2.7149,2.7149,2.7149,2.7179,2.7175,2.7225,2.7175,2.7165,2.717,2.7168,2.7201,2.7205,2.7217,2.7275,2.7277,2.7226,2.7228,2.723,2.7231,0,0,0,0,0,0,0,2.7085,2.7092,2.7172,2.715,2.715,2.7142,2.7146,2.7184,2.7193,2.7165,2.7164,2.7169,2.7201,2.7214,2.7218,2.7278,2.7226,2.7229,2.7231,2.7232,2.7384,2.7386,0,0,0,0,0,0,2.7083,2.709,2.7171,2.7174,2.7113,2.7145,2.715,2.7171,2.7192,2.7194,2.7171,2.7168,2.7209,2.7214,2.7219,2.7288,2.723,2.7233,2.7235,2.7382,2.7385,2.7387,0,0,0,0,0,0,2.708,2.709,2.7169,2.7131,2.7141,2.7149,2.7173,2.7173,2.7186,2.7197,2.7197,2.7183,2.7208,2.7215,2.726,2.7289,2.7234,2.7237,2.738,2.7383,2.7386,2.7427,0,0,0,0,0,0,2.7077,2.7089,2.7113,2.7132,2.7143,2.7211,2.7175,2.7175,2.7193,2.7189,2.7208,2.721,2.7207,2.7256,2.7264,2.7293,2.724,2.7377,2.7381,2.7385,2.7423,2.7431,2.7438,0,0,0,0,0,2.7073,2.7122,2.7114,2.7124,2.7173,2.7213,2.7219,2.7216,2.7195,2.7218,2.7224,2.7209,2.7285,2.726,2.7269,2.73,2.7375,2.738,2.7384,2.742,2.7429,2.7438,0,0,0,0,0,0,2.7104,2.7124,2.7116,2.7172,2.7191,2.7208,2.7237,2.7227,2.7251,2.7247,2.7241,2.7245,2.7293,2.7301,2.7273,2.7357,2.7327,2.7333,2.735,2.736,2.7367,2.7364,2.7243,0,0,0,0,0,2.7117,2.715,2.7165,2.7213,2.7223,2.7229,2.7246,2.7243,2.7261,2.7269,2.7278,2.7296,2.7323,2.7342,2.7368,2.7424,2.7427,2.7449,2.7456,2.7462,2.7468,2.7498,2.7508,2.7402,2.7402,2.7402,0,0,2.7145,2.716,2.7181,2.722,2.7234,2.7266,2.7235,2.7271,2.7294,2.7273,2.7318,2.7325,2.7344,2.7395,2.7418,2.7403,2.7498,2.7468,2.7473,2.7476,2.7504,2.7514,2.7523,2.7405,2.7404,2.7404,0,0,2.7212,2.7227,2.7269,2.7284,2.7307,2.731,2.732,2.7339,2.7343,2.7388,2.7373,2.74,2.7448,2.7462,2.7475,2.7548,2.7534,2.7556,2.7595,2.7624,2.7632,2.764,2.7665,2.7675,2.7561,2.7562,2.7562,0,2.7243,2.7294,2.7291,2.7329,2.7346,2.7329,2.7371,2.7385,2.7414,2.7426,2.7409,2.7469,2.748,2.7534,2.7552,2.7563,2.7574,2.7554,2.7631,2.7639,2.7646,2.767,2.768,2.7564,2.7564,2.7564,2.7563,0,2.7331,2.7365,2.7396,2.7427,2.7447,2.7486,2.7488,2.7509,2.7503,2.7508,2.7552,2.7566,2.7594,2.7607,2.7601,2.766,2.765,2.7632,2.7602,2.7658,2.7681,2.769,2.7568,2.7567,2.7566,2.7565,0,0,2.7419,2.7448,2.7459,2.7473,2.7496,2.7522,2.7559,2.7589,2.7606,2.7627,2.7657,2.7698,2.7682,2.7698,2.7693,2.7719,2.7775,2.7698,2.7698,2.7712,2.784,2.7853,2.7864,2.7766,2.7768,2.7769,2.7838,0,2.7488,2.7556,2.7555,2.7617,2.7648,2.7633,2.7665,2.7682,2.7687,2.7713,2.7718,2.7747,2.7724,2.7733,2.7757,2.7763,2.78,2.7758,2.7793,2.7795,2.779,2.7876,2.7891,2.7956,2.7847,2.7849,2.785,0,2.7578,2.7603,2.7669,2.7688,2.7701,2.773,2.7757,2.7782,2.7801,2.7802,2.7819,2.7811,2.7847,2.7816,2.7865,2.7836,2.7851,2.7855,2.7858,2.7861,2.7826,2.7882,2.7976,2.7986,2.7864,2.7863,2.7862,0,2.7636,2.7686,2.7732,2.7744,2.7767,2.7788,2.7798,2.7814,2.7832,2.7854,2.7866,2.7891,2.7906,2.7925,2.7923,2.79,2.7973,2.7942,2.7975,2.7975,2.7992,2.7991,2.8089,2.8,2.8,2.8,2.8,0,2.7713,2.7754,2.7758,2.7787,2.7831,2.7829,2.7873,2.788,2.7895,2.7924,2.7911,2.7937,2.7933,2.7959,2.7958,2.7999,2.8005,2.8007,2.8006,2.8008,2.8008,2.8018,2.8013,2.8002,2.8002,2.8001,2.8001,0,2.7786,2.779,2.784,2.7858,2.7863,2.7895,2.791,2.7936,2.7939,2.7975,2.7983,2.7989,2.8019,2.8019,2.8052,2.8051,2.8102,2.8096,2.8097,2.8095,2.8129,2.8126,2.8238,2.8252,2.8153,2.8154,2.8155,0,2.7835,2.7867,2.7889,2.7908,2.792,2.795,2.7968,2.7966,2.7985,2.8008,2.8031,2.8061,2.8084,2.8132,2.8138,2.8164,2.8158,2.8195,2.8162,2.8163,2.8159,2.8157,2.816,2.8202,2.8203,2.8204,2.8205,0,2.7923,2.7923,2.7951,2.798,2.8002,2.8024,2.8044,2.806,2.806,2.8082,2.8114,2.8132,2.8167,2.8196,2.822,2.8229,2.8217,2.8215,2.8224,2.8227,2.8227,2.8228,2.8115,2.8213,2.8212,2.8211,2.8211,2.8211,2.7985,2.8013,2.8033,2.8064,2.8079,2.8098,2.8124,2.8131,2.8158,2.8187,2.8184,2.8219,2.8235,2.8267,2.8278,2.8304,2.8291,2.8304,2.8307,2.8311,2.8315,2.8222,2.8308,2.8308,2.8308,2.8308,2.8308,0,2.8072,2.8084,2.8113,2.8143,2.8167,2.8155,2.8176,2.8197,2.8228,2.8246,2.8269,2.8305,2.8333,2.8341,2.8367,2.8386,2.8382,2.8393,2.8392,2.8394,2.8325,2.8315,2.8397,2.8397,2.8397,2.8397,2.8397,2.8397,2.8121,2.8166,2.8169,2.8221,2.8232,2.8268,2.8281,2.8299,2.8312,2.8353,2.8377,2.8383,2.8396,2.8423,2.8448,2.8449,2.8459,2.8474,2.8473,2.8408,2.8399,2.8391,2.8381,2.8476,2.8476,2.854,2.8541,2.8541]}]]